Change the Weather History Date:

Friday, November 1, 2013

  Actual Average (PAKU) Record (PAKU)
Temperature  
Mean Temperature 5 °F -  
Max Temperature 12 °F 9 °F 33 °F (2002)
Min Temperature -2 °F 1 °F -25 °F (1983)
Degree Days  
Heating Degree Days 60    
Moisture  
Dew Point 4 °F    
Average Humidity 93    
Maximum Humidity 100    
Minimum Humidity 91    
Precipitation  
Precipitation 0.00 in - - ()
Sea Level Pressure  
Sea Level Pressure 29.99 in    
Wind  
Wind Speed 6 mph (South)    
Max Wind Speed 8 mph    
Max Gust Speed -    
Visibility 8 miles    
Events Snow    
Averages and records for this station are not official NWS values.
T = Trace of Precipitation, MM = Missing Value Source: NWS Daily Summary

Daily Weather History Graph

Daily Weather History Graph

Search for Another Location

Airport or City:

Trip Planner

Search our weather history database for the weather conditions in past years. The results will help you decide how hot, cold, wet, or windy it might be!

Date:

Astronomy

Nov. 01, 2013 Rise Set
Actual Time 10:39 AM AKDT 4:54 PM AKDT
Civil Twilight 9:23 AM AKDT 6:09 PM AKDT
Nautical Twilight 8:08 AM AKDT 7:25 PM AKDT
Astronomical Twilight 6:56 AM AKDT 8:36 PM AKDT
Moon 7:43 AM AKDT (11/1) 4:40 PM AKDT (11/1)
Length of Visible Light 8h 46m
Length of Day
6h 14m
Waning Crescent, 4% of the Moon is Illuminated
Nov 1
Waning Crescent
Nov 3
New
Nov 9
First Quarter
Nov 17
Full
Nov 25
Last Quarter

Hourly Weather History & Observations

Time (AKDT) Temp. Windchill Dew Point Humidity Pressure Visibility Wind Dir Wind Speed Gust Speed Precip Events Conditions
12:20 AM 10.4 °F -0.4 °F 10.4 °F 100% 29.84 in 10.0 mi South 6.9 mph - 0.00 in   Overcast
12:53 AM 10.9 °F 1.4 °F 10.0 °F 96% 29.86 in 10.0 mi South 5.8 mph - 0.00 in   Overcast
1:53 AM 10.9 °F 1.4 °F 10.0 °F 96% 29.87 in 10.0 mi South 5.8 mph - N/A   Overcast
2:53 AM 10.9 °F 1.4 °F 9.0 °F 92% 29.89 in 10.0 mi South 5.8 mph - N/A   Overcast
3:53 AM 10.9 °F 1.4 °F 10.0 °F 96% 29.90 in 10.0 mi South 5.8 mph - N/A   Overcast
4:53 AM 10.9 °F 1.4 °F 10.0 °F 96% 29.91 in 10.0 mi South 5.8 mph - N/A   Overcast
5:53 AM 10.9 °F 2.9 °F 10.0 °F 96% 29.93 in 10.0 mi South 4.6 mph - N/A   Overcast
6:53 AM 12.0 °F 4.1 °F 10.0 °F 92% 29.94 in 5.0 mi SSW 4.6 mph - 0.00 in Snow Light Snow
7:53 AM 12.0 °F 4.1 °F 10.0 °F 92% 29.95 in 5.0 mi South 4.6 mph - 0.00 in Snow Light Snow
8:53 AM 10.9 °F 2.9 °F 10.0 °F 96% 29.97 in 5.0 mi South 4.6 mph - 0.00 in Snow Light Snow
9:53 AM 10.9 °F 1.4 °F 9.0 °F 92% 29.98 in 7.0 mi South 5.8 mph - 0.00 in   Overcast
10:53 AM 10.0 °F 1.8 °F 8.1 °F 92% 29.99 in 5.0 mi South 4.6 mph - 0.00 in Snow Light Snow
11:44 AM 8.6 °F 0.1 °F 6.8 °F 92% 30.00 in 2.5 mi South 4.6 mph - 0.00 in Snow Light Snow
11:53 AM 8.1 °F -2.0 °F 7.0 °F 95% 30.01 in 2.0 mi South 5.8 mph - 0.00 in Snow Light Snow
12:05 PM 6.8 °F -3.5 °F 5.0 °F 92% 30.00 in 3.0 mi South 5.8 mph - 0.00 in   Overcast
12:53 PM 5.0 °F -5.6 °F 3.0 °F 92% 30.02 in 5.0 mi South 5.8 mph - 0.00 in   Overcast
1:53 PM 3.9 °F -5.3 °F 1.9 °F 91% 30.04 in 5.0 mi South 4.6 mph - 0.00 in   Overcast
2:53 PM 3.0 °F -8.0 °F 1.0 °F 91% 30.05 in 10.0 mi South 5.8 mph - 0.00 in   Overcast
3:53 PM 1.0 °F -11.7 °F -0.9 °F 91% 30.05 in 10.0 mi South 6.9 mph - 0.00 in   Overcast
4:30 PM -0.4 °F -13.4 °F -2.2 °F 92% 30.05 in 3.0 mi South 6.9 mph - N/A   Mostly Cloudy
4:45 PM -0.4 °F -10.4 °F -2.2 °F 92% 30.05 in 10.0 mi South 4.6 mph - N/A   Scattered Clouds
4:53 PM -0.9 °F -15.3 °F -2.9 °F 91% 30.05 in 10.0 mi South 8.1 mph - N/A   Partly Cloudy
5:53 PM -0.9 °F -15.3 °F -2.9 °F 91% 30.06 in 9.0 mi South 8.1 mph - N/A   Mostly Cloudy
6:53 PM -2.9 °F -15.0 °F -4.0 °F 95% 30.05 in 10.0 mi South 5.8 mph - N/A   Overcast
7:53 PM -2.0 °F -15.4 °F -4.0 °F 91% 30.05 in 10.0 mi South 6.9 mph - N/A   Overcast
8:53 PM -0.9 °F -12.7 °F -2.9 °F 91% 30.04 in 10.0 mi South 5.8 mph - 0.00 in   Overcast
9:53 PM 1.9 °F -10.6 °F -0.0 °F 91% 30.04 in 10.0 mi South 6.9 mph - 0.00 in   Overcast
10:53 PM 1.0 °F -8.7 °F -0.9 °F 91% 30.03 in 10.0 mi South 4.6 mph - N/A   Mostly Cloudy
11:53 PM 3.9 °F -6.9 °F 3.0 °F 96% 30.02 in 10.0 mi South 5.8 mph - N/A   Overcast